Latest Coastal Weather Observations for Northern Endeavour (near 10.5S 126E)

IDD60701

Issued at 6:35 am CST Friday 21 November 2014 (issued every 10 minutes, with the page automatically refreshed every 10 minutes)

About coastal observations | Map of coastal stations | Coastal observations for NT | Marine services | Other Formats
Station Details ID: 200212 Name: NORTHERN ENDEAVOUR Lat: -10.61 Lon: 125.98 Height: 16.0 m
Data from the previous 72 hours. | See also: Recent months for locations in Northern Territory
Date/Time
CST
Temp

°C
Wind Pressure Rain
since 9am
mm
Weather Cloud Vis
km
Sea
Height
m
Swell
Dir
 
Speed
knots
Gust
knots
hPa Trend Height
m
Period
s
Dir
21/06:30am 28.3 NW 4 4 1009.8 - - - Cloudy 10 - - - -
21/06:20am 28.3 NW 3 4 1009.8 - - - Cloudy 10 - - - -
21/06:10am 28.2 NNW 3 2 1009.8 - - - Cloudy 10 - - - -
21/06:00am 28.2 NW 3 4 1009.6 - - - Cloudy 10 - - - -
21/05:50am 28.2 NW 4 4 1009.5 - - - Cloudy 10 - - - -
21/05:40am 28.3 NNW 4 3 1009.4 - - - Cloudy 10 - - - -
21/05:30am 28.3 NW 4 4 1009.4 - - - Cloudy 10 - - - -
21/05:20am 28.3 NW 4 4 1009.4 - - - Cloudy 10 - - - -
21/05:10am 28.2 NW 3 5 1009.3 - - - Partly cloudy 10 - - - -
21/05:00am 28.2 NW 4 4 1009.3 - - - Partly cloudy 10 - - - -
21/04:50am 28.2 NNW 4 4 1009.3 - - - Partly cloudy 10 - - - -
21/04:40am 28.3 N 3 5 1009.3 - - - Partly cloudy 10 - - - -
21/04:30am 28.2 NNW 3 4 1009.3 - - - Partly cloudy 10 - - - -
21/04:20am 28.2 NW 3 3 1009.3 - - - Partly cloudy 10 - - - -
21/04:10am 28.2 N 3 4 1009.3 - - - Partly cloudy 10 - - - -
21/04:00am 28.3 NNE 4 4 1009.2 - - - Partly cloudy 10 - - - -
21/03:50am 28.2 N 5 5 1009.1 - - - Partly cloudy 10 - - - -
21/03:40am 28.3 NNE 4 5 1009.0 - - - Partly cloudy 10 - - - -
21/03:30am 28.3 NNE 4 4 1008.9 - - - Cloudy 10 - - - -
21/03:20am 28.3 NNE 5 6 1008.8 - - - Partly cloudy 10 - - - -
21/03:10am 28.4 NNE 5 6 1008.8 - - - Partly cloudy 10 - - - -
21/03:00am 28.3 - 3 5 1008.9 - - - Partly cloudy 10 - - - -
21/02:50am 28.4 N 4 4 1009.0 - - - Cloudy 10 - - - -
21/02:40am 28.5 NE 4 4 1009.1 - - - Cloudy 10 - - - -
21/02:30am 28.4 NE 4 6 1009.1 - - - Cloudy 10 - - - -
21/02:20am 28.5 ENE 4 4 1009.3 - - - Cloudy 10 - - - -
21/02:10am 28.5 NE 4 4 1009.4 - - - Cloudy 10 - - - -
21/02:00am 28.6 ENE 3 4 1009.4 - - - Cloudy 10 - - - -
21/01:50am 28.6 E 3 4 1009.4 - - - Cloudy 10 - - - -
21/01:40am 28.6 E 4 4 1009.5 - - - Cloudy 10 - - - -
21/01:30am 28.7 ENE 5 6 1009.6 - - - Cloudy 10 - - - -
21/01:20am 28.7 ENE 5 6 1009.7 - - - Cloudy 10 - - - -
21/01:10am 28.8 ENE 5 5 1009.7 - - - Cloudy 10 - - - -
21/01:00am 28.7 ENE 4 5 1009.8 - - - Cloudy 10 - - - -
21/12:50am 28.8 ENE 5 6 1009.9 - - - Cloudy 10 - - - -
21/12:40am 28.8 ENE 6 7 1010.1 - - - Cloudy 10 - - - -
21/12:30am 28.8 ENE 5 6 1010.4 - - - Cloudy 10 - - - -
21/12:20am 28.8 ENE 5 4 1010.3 - - - Cloudy 10 - - - -
21/12:10am 28.9 ENE 5 8 1010.3 - - - Cloudy 10 - - - -
21/12:00am 28.9 NE 5 7 1010.4 - - - Cloudy 10 - - - -
 
Date/Time
CST
Temp

°C
Wind Pressure Rain
since 9am
mm
Weather Cloud Vis
km
Sea
Height
m
Swell
Dir
 
Speed
knots
Gust
knots
hPa Trend Height
m
Period
s
Dir
20/11:50pm 28.9 ENE 5 7 1010.4 - - - Cloudy 10 - - - -
20/11:40pm 28.9 ENE 5 6 1010.4 - - - Cloudy 10 - - - -
20/11:30pm 28.9 ENE 5 7 1010.4 - - - Cloudy 10 - - - -
20/11:20pm 28.9 NE 5 6 1010.3 - - - Cloudy 10 - - - -
20/11:10pm 28.9 ENE 5 6 1010.3 - - - Cloudy 10 - - - -
20/11:00pm 29.0 ENE 5 6 1010.4 - - - Cloudy 10 - - - -
20/10:50pm 29.0 ENE 5 6 1010.5 - - - Cloudy 10 - - - -
20/10:40pm 29.0 E 6 6 1010.5 - - - Cloudy 10 - - - -
20/10:30pm 29.0 ENE 7 8 1010.6 - - - Cloudy 10 - - - -
20/10:20pm 29.0 ENE 6 6 1010.7 - - - Cloudy 10 - - - -
20/10:10pm 29.0 ENE 6 8 1010.6 - - - Cloudy 10 - - - -
20/10:00pm 29.0 ENE 6 7 1010.5 - - - Cloudy 10 - - - -
20/09:50pm 29.0 ENE 6 8 1010.4 - - - Cloudy 10 - - - -
20/09:40pm 29.0 ENE 6 7 1010.3 - - - Partly cloudy 10 - - - -
20/09:30pm 29.0 E 5 8 1010.2 - - - Partly cloudy 10 - - - -
20/09:20pm 29.0 E 6 7 1010.1 - - - Cloudy 10 - - - -
20/09:10pm 29.0 E 6 7 1010.0 - - - Cloudy 10 - - - -
20/09:00pm 29.0 ENE 6 7 1009.9 - - - Cloudy 10 - - - -
20/08:50pm 29.1 E 6 7 1009.8 - - - Cloudy 10 - - - -
20/08:40pm 29.0 E 5 6 1009.8 - - - Cloudy 10 - - - -
20/08:30pm 29.0 E 6 7 1009.7 - - - Cloudy 10 - - - -
20/08:20pm 29.0 ENE 6 6 1009.7 - - - Cloudy 10 - - - -
20/08:10pm 29.1 E 5 7 1009.8 - - - Cloudy 10 - - - -
20/08:00pm 29.1 E 5 7 1009.7 - - - Cloudy 10 - - - -
20/07:50pm 29.3 ESE 6 7 1009.6 - - - Cloudy 10 - - - -
20/07:40pm 29.2 ESE 6 7 1009.5 - - - Cloudy 10 - - - -
20/07:30pm 29.3 ESE 6 7 1009.3 - - - Cloudy 10 - - - -
20/07:20pm 29.2 ESE 5 6 1009.3 - - - Cloudy 10 - - - -
20/07:10pm 29.2 E 5 6 1009.2 - - - Cloudy 10 - - - -
20/07:00pm 29.6 ESE 6 7 1009.2 - - - Cloudy 10 - - - -
20/06:50pm 29.5 ESE 6 5 1009.2 - - - Cloudy 10 - - - -
20/06:40pm 29.7 ESE 4 8 1009.1 - - - Cloudy 10 - - - -
20/06:30pm 30.1 ESE 5 7 1009.1 - - - Cloudy 10 - - - -
20/06:20pm 30.1 E 5 7 1008.9 - - - Cloudy 10 - - - -
20/06:10pm 29.6 ENE 3 7 1008.8 - - - Cloudy 10 - - - -
20/06:00pm 29.5 E 4 4 1008.9 - - - Cloudy 10 - - - -
20/05:50pm 29.6 E 4 5 1008.9 - - - Cloudy 10 - - - -
20/05:40pm 29.7 E 5 6 1008.8 - - - Cloudy 10 - - - -
20/05:30pm 29.7 E 4 6 1008.9 - - - Cloudy 10 - - - -
20/05:20pm 29.2 ENE 4 6 1009.0 - - - Cloudy 10 - - - -
20/05:10pm 29.2 NE 4 5 1009.1 - - - Partly cloudy 10 - - - -
20/05:00pm 29.1 NE 4 4 1009.1 - - - Partly cloudy 10 - - - -
20/04:50pm 29.1 NE 3 6 1009.1 - - - Partly cloudy 10 - - - -
20/04:40pm 29.1 NE 4 3 1009.2 - - - Partly cloudy 10 - - - -
20/04:30pm 29.1 ENE 4 6 1009.2 - - - Partly cloudy 10 - - - -
20/04:20pm 29.5 ENE 6 7 1009.2 - - - Cloudy 10 - - - -
20/04:10pm 29.7 E 6 9 1009.3 - - - Cloudy 10 - - - -
20/04:00pm 29.7 E 5 8 1009.3 - - - Partly cloudy 10 - - - -
20/03:50pm 29.6 ENE 6 6 1009.5 - - - Partly cloudy 10 - - - -
20/03:40pm 29.3 E 5 8 1009.6 - - - Partly cloudy 10 - - - -
20/03:30pm 29.5 E 5 6 1009.7 - - - Partly cloudy 10 - - - -
20/03:20pm 29.4 ENE 6 6 1009.7 - - - Partly cloudy 10 - - - -
20/03:10pm 29.6 ENE 6 7 1009.8 - - - Partly cloudy 10 - - - -
20/03:00pm 29.3 ENE 4 8 1009.9 - - - Partly cloudy 10 - - - -
20/02:50pm 29.3 ENE 4 4 1010.0 - - - Partly cloudy 10 - - - -
20/02:40pm 29.2 E 5 7 1010.1 - - - Partly cloudy 10 - - - -
20/02:30pm 30.2 ESE 5 7 1010.2 - - - Partly cloudy 10 - - - -
20/02:20pm 29.7 ESE 4 6 1010.2 - - - Partly cloudy 10 - - - -
20/02:10pm 30.5 E 3 7 1010.4 - - - Partly cloudy 10 - - - -
20/02:00pm 29.3 ENE 3 4 1010.4 - - - Partly cloudy 10 - - - -
20/01:50pm 29.1 ENE 3 5 1010.5 - - - Partly cloudy 10 - - - -
20/01:40pm 29.0 NE 3 4 1010.6 - - - Partly cloudy 10 - - - -
20/01:30pm 29.3 ENE 4 4 1010.7 - - - Partly cloudy 10 - - - -
20/01:20pm 28.8 ENE 4 5 1010.8 - - - Partly cloudy 10 - - - -
20/01:10pm 29.6 ENE 4 6 1010.9 - - - Partly cloudy 10 - - - -
20/01:00pm 29.7 E 4 4 1010.9 - - - Cloudy 10 - - - -
20/12:50pm 29.8 E 4 8 1010.9 - - - Cloudy 10 - - - -
20/12:40pm 29.1 E 4 7 1011.0 - - - Cloudy 9 - - - -
20/12:30pm 28.7 NE 3 4 1011.1 - - - Cloudy 10 - - - -
20/12:20pm 28.6 ENE 4 5 1011.1 - - - Cloudy 10 - - - -
20/12:10pm 28.6 ENE 5 6 1011.2 - - - Cloudy 10 - - - -
20/12:00pm 28.6 NE 4 4 1011.3 - - - Cloudy 10 - - - -
20/11:50am 28.6 NE 4 5 1011.3 - - - Cloudy 10 - - - -
20/11:40am 28.6 ENE 4 3 1011.4 - - - Cloudy 10 - - - -
20/11:30am 28.5 NE 4 5 1011.5 - - - Cloudy 10 - - - -
20/11:20am 28.6 NNE 4 5 1011.6 - - - Cloudy 10 - - - -
20/11:10am 28.4 N 5 6 1011.7 - - - Cloudy 10 - - - -
20/11:00am 28.5 NNE 5 6 1011.7 - - - Cloudy 10 - - - -
20/10:50am 28.5 NNE 6 8 1011.6 - - - Cloudy 10 - - - -
20/10:40am 28.5 NNE 6 6 1011.6 - - - Cloudy 10 - - - -
20/10:30am 28.5 NNE 6 7 1011.7 - - - Cloudy 10 - - - -
20/10:20am 28.5 NNE 5 6 1011.7 - - - Cloudy 10 - - - -
20/10:10am 28.5 NNE 5 8 1011.7 - - - Cloudy 10 - - - -
20/10:00am 28.5 NNE 5 6 1011.7 - - - Cloudy 10 - - - -
20/09:50am 28.4 NNE 5 6 1011.7 - - - Cloudy 10 - - - -
20/09:40am 28.4 N 5 6 1011.7 - - - Cloudy 10 - - - -
20/09:30am 28.4 N 5 6 1011.5 - - - Cloudy 10 - - - -
20/09:20am 28.5 NNE 4 6 1011.4 - - - Cloudy 10 - - - -
20/09:10am 28.6 NE 4 4 1011.5 - - - Cloudy 10 - - - -
20/09:00am 28.5 NE 4 6 1011.4 - - - Cloudy 10 - - - -
20/08:50am 28.7 NNE 2 3 1011.4 - - - Cloudy 10 - - - -
20/08:40am 28.7 NNE 2 3 1011.4 - - - Cloudy 10 - - - -
20/08:30am 29.3 NNE 2 2 1011.2 - - - Cloudy 10 - - - -
20/08:20am 29.2 NNE 1 3 1011.2 - - - Cloudy 10 - - - -
20/08:10am 30.3 NE 1 1 1011.3 - - - Cloudy 10 - - - -
20/08:00am 29.5 NNE 1 1 1011.2 - - - Cloudy 10 - - - -
20/07:50am 30.1 NNW 1 1 1011.1 - - - Cloudy 10 - - - -
20/07:40am 30.0 ENE 2 2 1010.8 - - - Cloudy 10 - - - -
20/07:30am 28.9 ENE 2 3 1010.8 - - - Cloudy 10 - - - -
20/07:20am 28.8 NNW 1 1 1010.7 - - - Cloudy 10 - - - -
20/07:10am 28.3 WNW 2 2 1010.6 - - - Cloudy 10 - - - -
20/07:00am 28.2 NW 2 4 1010.4 - - - Cloudy 10 - - - -
20/06:50am 28.0 - 2 4 1010.5 - - - Cloudy 10 - - - -
20/06:40am 28.0 NNE 2 2 1010.5 - - - Cloudy 10 - - - -
20/06:30am 28.0 NE 2 3 1010.5 - - - Cloudy 10 - - - -
20/06:20am 28.0 NE 2 2 1010.3 - - - Cloudy 10 - - - -
20/06:10am 28.0 NE 2 2 1010.3 - - - Cloudy 10 - - - -
20/06:00am 28.0 NNE 3 3 1010.1 - - - Cloudy 10 - - - -
20/05:50am 28.0 NNE 3 4 1009.8 - - - Cloudy 10 - - - -
20/05:40am 28.0 NNE 4 3 1009.7 - - - Cloudy 10 - - - -
20/05:30am 28.0 NE 4 5 1009.6 - - - Cloudy 10 - - - -
20/05:20am 28.0 NE 4 4 1009.6 - - - Cloudy 10 - - - -
20/05:10am 28.0 NE 4 4 1009.5 - - - Cloudy 10 - - - -
20/05:00am 28.0 NE 3 4 1009.4 - - - Cloudy 10 - - - -
20/04:50am 28.0 NE 4 4 1009.3 - - - Cloudy 10 - - - -
20/04:40am 28.0 NNE 3 3 1009.3 - - - Cloudy 10 - - - -
20/04:30am 28.0 NNE 4 4 1009.3 - - - Cloudy 10 - - - -
20/04:20am 28.1 NNE 4 4 1009.4 - - - Cloudy 10 - - - -
20/04:10am 28.1 NNE 4 4 1009.3 - - - Cloudy 10 - - - -
20/04:00am 28.1 NE 4 5 1009.4 - - - Cloudy 10 - - - -
20/03:50am 28.1 N 4 4 1009.4 - - - Cloudy 10 - - - -
20/03:40am 28.1 NE 4 6 1009.5 - - - Cloudy 10 - - - -
20/03:30am 28.2 ENE 6 6 1009.6 - - - Cloudy 10 - - - -
20/03:20am 28.1 ENE 5 7 1009.7 - - - Cloudy 10 - - - -
20/03:10am 28.2 ENE 6 7 1009.7 - - - Cloudy 10 - - - -
20/03:00am 28.3 ENE 6 6 1009.7 - - - Cloudy 10 - - - -
20/02:50am 28.3 ENE 5 7 1009.8 - - - Cloudy 10 - - - -
20/02:40am 28.3 ENE 6 6 1010.0 - - - Cloudy 10 - - - -
20/02:30am 28.4 ENE 5 6 1010.0 - - - Cloudy 10 - - - -
20/02:20am 28.4 E 5 7 1010.1 - - - Cloudy 10 - - - -
20/02:10am 28.4 ENE 5 7 1010.1 - - - Cloudy 10 - - - -
20/02:00am 28.4 ENE 5 7 1010.1 - - - Cloudy 10 - - - -
20/01:50am 28.4 ENE 5 5 1010.3 - - - Cloudy 10 - - - -
20/01:40am 28.5 ENE 5 8 1010.3 - - - Cloudy 10 - - - -
20/01:30am 28.5 ENE 5 5 1010.5 - - - Cloudy 10 - - - -
20/01:20am 28.5 ENE 6 7 1010.5 - - - Cloudy 10 - - - -
20/01:10am 28.6 ENE 5 5 1010.6 - - - Cloudy 10 - - - -
20/01:00am 28.6 ENE 5 6 1010.6 - - - Cloudy 10 - - - -
20/12:50am 28.6 ENE 5 5 1010.7 - - - Cloudy 10 - - - -
20/12:40am 28.7 ENE 5 6 1010.9 - - - Partly cloudy 10 - - - -
20/12:30am 28.7 E 5 7 1011.0 - - - Partly cloudy 10 - - - -
20/12:20am 28.7 E 4 6 1011.0 - - - Partly cloudy 10 - - - -
20/12:10am 28.7 ENE 4 4 1011.1 - - - Partly cloudy 10 - - - -
20/12:00am 28.7 E 5 5 1011.2 - - - Partly cloudy 10 - - - -
 
Date/Time
CST
Temp

°C
Wind Pressure Rain
since 9am
mm
Weather Cloud Vis
km
Sea
Height
m
Swell
Dir
 
Speed
knots
Gust
knots
hPa Trend Height
m
Period
s
Dir
19/11:50pm 28.7 ENE 6 7 1011.0 - - - Partly cloudy 10 - - - -
19/11:40pm 28.8 ENE 6 6 1011.1 - - - Partly cloudy 10 - - - -
19/11:30pm 28.9 E 5 6 1011.2 - - - Cloudy 10 - - - -
19/11:20pm 28.9 E 6 7 1011.2 - - - Cloudy 10 - - - -
19/11:10pm 28.9 E 6 7 1011.1 - - - Cloudy 10 - - - -
19/11:00pm 28.9 E 5 5 1011.1 - - - Cloudy 10 - - - -
19/10:50pm 28.9 E 5 6 1011.1 - - - Cloudy 10 - - - -
19/10:40pm 28.9 E 4 6 1011.1 - - - Cloudy 10 - - - -
19/10:30pm 28.9 ESE 5 5 1011.2 - - - Cloudy 10 - - - -
19/10:20pm 28.9 E 5 5 1011.1 - - - Cloudy 10 - - - -
19/10:10pm 29.0 E 5 4 1011.0 - - - Cloudy 10 - - - -
19/10:00pm 29.1 E 6 7 1010.9 - - - Cloudy 10 - - - -
19/09:50pm 29.1 E 6 7 1011.0 - - - Cloudy 10 - - - -
19/09:40pm 29.1 E 6 6 1011.1 - - - Cloudy 10 - - - -
19/09:30pm 29.1 E 5 8 1011.2 - - - Cloudy 10 - - - -
19/09:20pm 29.1 E 6 6 1011.2 - - - Cloudy 10 - - - -
19/09:10pm 29.1 E 6 5 1011.2 - - - Cloudy 10 - - - -
19/09:00pm 29.1 E 6 7 1011.2 - - - Cloudy 10 - - - -
19/08:50pm 29.1 E 5 7 1011.2 - - - Cloudy 10 - - - -
19/08:40pm 29.1 E 5 6 1011.1 - - - Cloudy 10 - - - -
19/08:30pm 29.1 E 4 5 1011.0 - - - Partly cloudy 10 - - - -
19/08:20pm 29.1 E 5 5 1010.9 - - - Cloudy 10 - - - -
19/08:10pm 29.2 E 6 8 1010.7 - - - Cloudy 10 - - - -
19/08:00pm 29.3 E 7 8 1010.5 - - - Cloudy 10 - - - -
19/07:50pm 29.5 E 6 9 1010.4 - - - Cloudy 10 - - - -
19/07:40pm 29.7 E 7 8 1010.3 - - - Cloudy 10 - - - -
19/07:30pm 29.8 E 7 9 1010.2 - - - Cloudy 10 - - - -
19/07:20pm 30.0 E 8 11 1010.0 - - - Cloudy 10 - - - -
19/07:10pm 29.7 E 6 9 1010.0 - - - Partly cloudy 10 - - - -
19/07:00pm 29.6 E 7 10 1010.1 - - - Partly cloudy 10 - - - -
19/06:50pm 29.9 E 7 8 1010.1 - - - Partly cloudy 10 - - - -
19/06:40pm 29.5 E 6 6 1010.0 - - - Partly cloudy 10 - - - -
19/06:30pm 29.6 E 7 7 1009.9 - - - Partly cloudy 10 - - - -
19/06:20pm 29.6 E 6 8 1010.0 - - - Partly cloudy 10 - - - -
19/06:10pm 29.7 E 6 8 1009.9 - - - Partly cloudy 10 - - - -
19/06:00pm 29.8 E 7 7 1009.9 - - - Partly cloudy 10 - - - -
19/05:50pm 29.7 E 7 7 1009.8 - - - Partly cloudy 10 - - - -
19/05:40pm 29.7 E 7 9 1009.8 - - - Partly cloudy 10 - - - -
19/05:30pm 29.9 E 6 7 1009.7 - - - Partly cloudy 10 - - - -
19/05:20pm 29.8 E 6 8 1009.6 - - - Partly cloudy 10 - - - -
19/05:10pm 29.8 E 6 7 1009.5 - - - Partly cloudy 10 - - - -
19/05:00pm 30.2 ESE 6 7 1009.7 - - - Partly cloudy 10 - - - -
19/04:50pm 30.5 ESE 7 8 1009.7 - - - Partly cloudy 10 - - - -
19/04:40pm 31.0 ESE 8 9 1009.9 - - - Partly cloudy 10 - - - -
19/04:30pm 32.6 ESE 7 10 1009.9 - - - Partly cloudy 10 - - - -
19/04:20pm 32.2 ESE 7 9 1009.9 - - - Partly cloudy 10 - - - -
19/04:10pm 30.1 ESE 6 8 1009.9 - - - Partly cloudy 10 - - - -
19/04:00pm 30.3 ESE 7 8 1010.0 - - - Partly cloudy 10 - - - -
19/03:50pm 30.7 ESE 6 8 1010.1 - - - Partly cloudy 10 - - - -
19/03:40pm 30.2 E 6 9 1010.2 - - - Partly cloudy 10 - - - -
19/03:30pm 29.9 E 6 9 1010.2 - - - Cloudy 10 - - - -
19/03:20pm 30.0 E 7 9 1010.4 - - - Cloudy 10 - - - -
19/03:10pm 29.5 E 7 9 1010.5 - - - Cloudy 10 - - - -
19/03:00pm 29.6 E 7 9 1010.5 - - - Partly cloudy 10 - - - -
19/02:50pm 29.3 E 7 7 1010.7 - - - Partly cloudy 10 - - - -
19/02:40pm 29.9 E 7 9 1010.8 - - - Partly cloudy 10 - - - -
19/02:30pm 29.8 E 5 7 1010.9 - - - Partly cloudy 10 - - - -
19/02:20pm 29.4 E 6 6 1011.0 - - - Partly cloudy 10 - - - -
19/02:10pm 29.5 E 5 6 1011.1 - - - Partly cloudy 10 - - - -
19/02:00pm 29.7 E 5 7 1011.1 - - - Cloudy 10 - - - -
19/01:50pm 29.6 E 5 5 1011.1 - - - Partly cloudy 10 - - - -
19/01:40pm 28.9 ENE 5 5 1011.3 - - - Cloudy 10 - - - -
19/01:30pm 28.9 ENE 3 5 1011.5 - - - Partly cloudy 10 - - - -
19/01:20pm 29.5 NE 3 4 1011.5 - - - Cloudy 10 - - - -
19/01:10pm 29.1 NE 4 3 1011.5 - - - Cloudy 10 - - - -
19/01:00pm 29.6 N 2 6 1011.5 - - - Cloudy 10 - - - -
19/12:50pm 30.3 NE 3 3 1011.5 - - - Cloudy 10 - - - -
19/12:40pm 31.1 ENE 3 5 1011.6 - - - Cloudy 10 - - - -
19/12:30pm 29.9 NE 2 3 1011.5 - - - Cloudy 10 - - - -
19/12:20pm 30.0 N 2 4 1011.6 - - - Cloudy 10 - - - -
19/12:10pm 29.5 NNW 2 4 1011.7 - - - Cloudy 10 - - - -
19/12:00pm 29.3 NNW 2 3 1011.7 - - - Cloudy 10 - - - -
19/11:50am 29.7 NNW 2 2 1011.7 - - - Cloudy 10 - - - -
19/11:40am 29.8 N 3 4 1011.8 - - - Cloudy 10 - - - -
19/11:30am 29.9 N 3 5 1012.0 - - - Cloudy 10 - - - -
19/11:20am 29.5 NNW 3 5 1012.2 - - - Cloudy 10 - - - -
19/11:10am 29.1 NNW 3 3 1012.3 - - - Cloudy 10 - - - -
19/11:00am 29.1 N 3 3 1012.3 - - - Cloudy 10 - - - -
19/10:50am 29.5 N 3 4 1012.3 - - - Cloudy 10 - - - -
19/10:40am 29.7 N 4 5 1012.3 - - - Cloudy 10 - - - -
19/10:30am 29.8 NNW 3 4 1012.4 - - - Cloudy 10 - - - -
19/10:20am 29.6 N 5 5 1012.4 - - - Cloudy 10 - - - -
19/10:10am 29.7 N 5 6 1012.5 - - - Cloudy 10 - - - -
19/10:00am 29.1 N 4 6 1012.6 - - - Cloudy 10 - - - -
19/09:50am 28.9 N 4 6 1012.6 - - - Cloudy 10 - - - -
19/09:40am 28.7 N 4 6 1012.7 - - - Cloudy 10 - - - -
19/09:30am 28.8 - 3 4 1012.8 - - - Cloudy 9 - - - -
19/09:20am 28.7 - 5 5 1012.8 - - - Cloudy 10 - - - -
19/09:10am 28.7 - 4 5 1012.8 - - - Cloudy 10 - - - -
19/09:00am 28.7 - 4 3 1012.7 - - - Cloudy 10 - - - -
19/08:50am 28.7 NNE 5 6 1012.6 - - - Cloudy 10 - - - -
19/08:40am 28.6 N 6 8 1012.4 - - - Cloudy 10 - - - -
19/08:30am 28.7 - 5 6 1012.3 - - - Cloudy 10 - - - -
19/08:20am 28.7 N 6 8 1012.1 - - - Cloudy 10 - - - -
19/08:10am 28.6 N 5 6 1012.2 - - - Cloudy 8 - - - -
19/08:00am 28.6 N 6 6 1012.1 - - - Cloudy 10 - - - -
19/07:50am 28.7 NNE 7 8 1012.0 - - - Cloudy 10 - - - -
19/07:40am 28.6 NNE 6 7 1011.9 - - - Cloudy 10 - - - -
19/07:30am 28.6 NNE 5 5 1011.8 - - - Cloudy 10 - - - -
19/07:20am 28.5 NNE 7 7 1011.7 - - - Cloudy 10 - - - -
19/07:10am 28.5 NNE 7 8 1011.5 - - - Cloudy 10 - - - -
19/07:00am 28.4 NNE 8 9 1011.4 - - - Cloudy 10 - - - -
19/06:50am 28.4 NNE 8 10 1011.4 - - - Cloudy 10 - - - -
19/06:40am 28.4 NE 8 8 1011.3 - - - Cloudy 10 - - - -
19/06:30am 28.4 NNE 8 10 1011.1 - - - Cloudy 10 - - - -
19/06:20am 28.4 NNE 8 10 1011.0 - - - Cloudy 10 - - - -
19/06:10am 28.4 NE 8 9 1011.0 - - - Cloudy 10 - - - -
19/06:00am 28.5 NE 8 10 1010.9 - - - Cloudy 10 - - - -
19/05:50am 28.4 NE 8 9 1010.9 - - - Cloudy 10 - - - -
19/05:40am 28.4 NE 8 9 1010.7 - - - Cloudy 10 - - - -
19/05:30am 28.5 NE 9 9 1010.7 - - - Cloudy 10 - - - -
19/05:20am 28.5 NE 8 9 1010.6 - - - Cloudy 10 - - - -
19/05:10am 28.5 NE 7 8 1010.6 - - - Cloudy 10 - - - -
19/05:00am 28.5 NE 6 9 1010.5 - - - Cloudy 10 - - - -
19/04:50am 28.6 NE 6 7 1010.5 - - - Cloudy 10 - - - -
19/04:40am 28.6 NE 7 7 1010.5 - - - Cloudy 10 - - - -
19/04:30am 28.6 NE 6 9 1010.6 - - - Cloudy 10 - - - -
19/04:20am 28.6 NE 7 8 1010.5 - - - Cloudy 10 - - - -
19/04:10am 28.7 NE 9 10 1010.5 - - - Cloudy 10 - - - -
19/04:00am 28.6 NNE 7 10 1010.5 - - - Cloudy 10 - - - -
19/03:50am 28.7 NE 8 10 1010.5 - - - Cloudy 10 - - - -
19/03:40am 28.7 NE 7 10 1010.5 - - - Cloudy 10 - - - -
19/03:30am 28.7 NE 8 10 1010.5 - - - Cloudy 10 - - - -
19/03:20am 28.7 NE 7 10 1010.6 - - - Cloudy 10 - - - -
19/03:10am 28.6 NE 7 7 1010.7 - - - Cloudy 10 - - - -
19/03:00am 28.7 NE 8 9 1010.7 - - - Cloudy 10 - - - -
19/02:50am 28.7 NE 8 10 1010.7 - - - Cloudy 10 - - - -
19/02:40am 28.7 NE 8 10 1010.8 - - - Cloudy 10 - - - -
19/02:30am 28.7 NE 8 10 1010.9 - - - Cloudy 10 - - - -
19/02:20am 28.8 NE 9 10 1011.0 - - - Cloudy 10 - - - -
19/02:10am 28.7 NE 8 11 1011.0 - - - Cloudy 10 - - - -
19/02:00am 28.8 NE 8 11 1011.0 - - - Cloudy 10 - - - -
19/01:50am 28.8 ENE 9 10 1011.0 - - - Cloudy 10 - - - -
19/01:40am 28.8 ENE 9 10 1011.1 - - - Cloudy 10 - - - -
19/01:30am 28.9 ENE 8 12 1011.1 - - - Cloudy 10 - - - -
19/01:20am 28.9 ENE 9 11 1011.2 - - - Cloudy 10 - - - -
19/01:10am 28.9 ENE 9 11 1011.4 - - - Cloudy 10 - - - -
19/01:00am 28.9 ENE 10 10 1011.5 - - - Cloudy 10 - - - -
19/12:50am 28.9 ENE 10 12 1011.6 - - - Cloudy 10 - - - -
19/12:40am 28.9 ENE 10 11 1011.7 - - - Cloudy 10 - - - -
19/12:30am 28.9 E 8 12 1011.7 - - - Cloudy 10 - - - -
19/12:20am 28.9 ENE 9 10 1011.9 - - - Cloudy 10 - - - -
19/12:10am 28.9 ENE 9 12 1011.9 - - - Cloudy 10 - - - -
19/12:00am 28.8 ENE 10 11 1012.1 - - - Cloudy 10 - - - -
 
Date/Time
CST
Temp

°C
Wind Pressure Rain
since 9am
mm
Weather Cloud Vis
km
Sea
Height
m
Swell
Dir
 
Speed
knots
Gust
knots
hPa Trend Height
m
Period
s
Dir
18/11:50pm 28.8 E 8 9 1012.1 - - - Cloudy 10 - - - -
18/11:40pm 28.9 E 8 11 1012.1 - - - Cloudy 10 - - - -
18/11:30pm 28.9 E 9 12 1012.0 - - - Cloudy 10 - - - -
18/11:20pm 28.8 E 8 10 1011.9 - - - Cloudy 10 - - - -
18/11:10pm 28.9 E 8 12 1011.9 - - - Cloudy 10 - - - -
18/11:00pm 28.9 E 10 12 1011.9 - - - Cloudy 10 - - - -
18/10:50pm 28.9 E 9 12 1012.0 - - - Cloudy 10 - - - -
18/10:40pm 28.9 E 10 12 1011.9 - - - Cloudy 10 - - - -
18/10:30pm 28.9 E 9 12 1011.9 - - - Cloudy 10 - - - -
18/10:20pm 28.9 E 10 12 1011.8 - - - Cloudy 10 - - - -
18/10:10pm 28.9 E 8 10 1011.8 - - - Cloudy 10 - - - -
18/10:00pm 28.9 E 9 12 1011.7 - - - Cloudy 10 - - - -
18/09:50pm 28.9 ESE 8 12 1011.7 - - - Cloudy 10 - - - -
18/09:40pm 28.9 ESE 9 10 1011.6 - - - Cloudy 10 - - - -
18/09:30pm 29.0 ESE 8 10 1011.6 - - - Cloudy 10 - - - -
18/09:20pm 29.0 ESE 10 11 1011.5 - - - Cloudy 10 - - - -
18/09:10pm 29.0 ESE 10 10 1011.5 - - - Cloudy 10 - - - -
18/09:00pm 29.1 ESE 10 11 1011.4 - - - Cloudy 10 - - - -
18/08:50pm 29.0 ESE 8 12 1011.4 - - - Cloudy 10 - - - -
18/08:40pm 28.9 ESE 8 10 1011.3 - - - Cloudy 10 - - - -
18/08:30pm 29.1 ESE 10 11 1011.2 - - - Cloudy 10 - - - -
18/08:20pm 29.1 ESE 10 12 1011.1 - - - Cloudy 10 - - - -
18/08:10pm 29.1 ESE 10 11 1010.9 - - - Cloudy 10 - - - -
18/08:00pm 29.1 ESE 9 11 1010.9 - - - Cloudy 10 - - - -
18/07:50pm 29.2 ESE 8 8 1010.8 - - - Cloudy 10 - - - -
18/07:40pm 29.0 ESE 7 8 1010.6 - - - Cloudy 10 - - - -
18/07:30pm 29.0 ESE 7 9 1010.7 - - - Cloudy 10 - - - -
18/07:20pm 29.1 ESE 7 10 1010.7 - - - Cloudy 10 - - - -
18/07:10pm 29.1 E 8 9 1010.5 - - - Cloudy 10 - - - -
18/07:00pm 29.1 E 8 9 1010.6 - - - Cloudy 10 - - - -
18/06:50pm 29.3 E 8 8 1010.4 - - - Cloudy 10 - - - -
18/06:40pm 29.4 E 9 11 1010.3 - - - Cloudy 10 - - - -
18/06:30pm 29.5 E 9 10 1010.4 - - - Partly cloudy 10 - - - -
18/06:20pm 29.4 E 9 9 1010.3 - - - Partly cloudy 10 - - - -
18/06:10pm 29.4 E 7 9 1010.2 - - - Partly cloudy 10 - - - -
18/06:00pm 29.2 E 8 10 1010.2 - - - Partly cloudy 10 - - - -
18/05:50pm 29.3 E 10 11 1010.1 - - - Partly cloudy 10 - - - -
18/05:40pm 29.4 E 9 12 1010.1 - - - Partly cloudy 10 - - - -
18/05:30pm 29.4 E 9 10 1010.0 - - - Partly cloudy 10 - - - -
18/05:20pm 29.3 E 8 10 1009.9 - - - Partly cloudy 10 - - - -
18/05:10pm 29.4 E 10 11 1009.8 - - - Partly cloudy 10 - - - -
18/05:00pm 29.4 E 8 10 1009.7 - - - Partly cloudy 10 - - - -
18/04:50pm 29.8 E 8 10 1009.6 - - - Partly cloudy 10 - - - -
18/04:40pm 29.8 E 9 11 1009.5 - - - Partly cloudy 10 - - - -
18/04:30pm 29.8 E 9 10 1009.6 - - - Partly cloudy 10 - - - -
18/04:20pm 30.0 E 9 11 1009.6 - - - Partly cloudy 10 - - - -
18/04:10pm 30.3 E 8 9 1009.7 - - - Cloudy 10 - - - -
18/04:00pm 31.3 ESE 8 9 1009.7 - - - Cloudy 10 - - - -
18/03:50pm 30.5 ESE 7 9 1009.7 - - - Cloudy 10 - - - -
18/03:40pm 30.3 ESE 7 9 1009.7 - - - Partly cloudy 10 - - - -
18/03:30pm 30.0 ESE 9 9 1009.8 - - - Cloudy 10 - - - -
18/03:20pm 29.8 ESE 8 9 1009.9 - - - Partly cloudy 10 - - - -
18/03:10pm 30.3 ESE 7 10 1010.0 - - - Partly cloudy 10 - - - -
18/03:00pm 30.3 SE 7 9 1010.0 - - - Partly cloudy 10 - - - -
18/02:50pm 30.3 ESE 6 8 1010.1 - - - Cloudy 10 - - - -
18/02:40pm 30.3 ESE 7 10 1010.2 - - - Cloudy 10 - - - -
18/02:30pm 30.4 ESE 6 9 1010.2 - - - Cloudy 10 - - - -
18/02:20pm 30.3 E 9 9 1010.3 - - - Cloudy 10 - - - -
18/02:10pm 30.2 ESE 7 9 1010.5 - - - Partly cloudy 10 - - - -
18/02:00pm 30.2 ESE 7 9 1010.6 - - - Partly cloudy 10 - - - -
18/01:50pm 30.1 ESE 8 10 1010.8 - - - Partly cloudy 10 - - - -
18/01:40pm 29.9 ESE 8 11 1010.9 - - - Partly cloudy 10 - - - -
18/01:30pm 30.2 ESE 8 9 1011.1 - - - Cloudy 10 - - - -
18/01:20pm 29.8 ESE 9 10 1011.2 - - - Cloudy 10 - - - -
18/01:10pm 30.0 ESE 9 11 1011.3 - - - Cloudy 10 - - - -
18/01:00pm 29.7 ESE 9 9 1011.4 - - - Cloudy 10 - - - -
18/12:50pm 29.9 ESE 9 9 1011.5 - - - Partly cloudy 10 - - - -
18/12:40pm 29.8 ESE 10 11 1011.6 - - - Partly cloudy 10 - - - -
18/12:30pm 29.9 ESE 11 13 1011.7 - - - Partly cloudy 10 - - - -
18/12:20pm 29.6 ESE 10 11 1011.9 - - - Cloudy 10 - - - -
18/12:10pm 29.8 ESE 10 12 1012.0 - - - Cloudy 10 - - - -
18/12:00pm 30.0 ESE 10 11 1012.2 - - - Cloudy 10 - - - -
18/11:50am 29.8 ESE 10 10 1012.3 - - - Cloudy 10 - - - -
18/11:40am 29.7 ESE 10 12 1012.3 - - - Partly cloudy 10 - - - -
18/11:30am 29.6 ESE 10 11 1012.3 - - - Cloudy 10 - - - -
18/11:20am 29.7 ESE 10 13 1012.4 - - - Cloudy 10 - - - -
18/11:10am 30.0 ESE 9 10 1012.5 - - - Cloudy 10 - - - -
18/11:00am 29.9 ESE 9 10 1012.5 - - - Cloudy 10 - - - -
18/10:50am 29.7 ESE 8 10 1012.6 - - - Cloudy 10 - - - -
18/10:40am 29.7 ESE 8 10 1012.6 - - - Cloudy 10 - - - -
18/10:30am 29.9 ESE 7 9 1012.8 - - - Cloudy 10 - - - -
18/10:20am 29.7 ESE 7 8 1012.7 - - - Cloudy 10 - - - -
18/10:10am 29.6 ESE 6 8 1012.7 - - - Cloudy 10 - - - -
18/10:00am 29.6 ESE 5 7 1012.6 - - - Cloudy 10 - - - -
18/09:50am 29.6 ESE 4 7 1012.6 - - - Cloudy 10 - - - -
18/09:40am 29.6 SE 3 4 1012.6 - - - Cloudy 10 - - - -
18/09:30am 30.2 E 1 3 1012.5 - - - Cloudy 10 - - - -
18/09:20am 31.4 NE 1 2 1012.3 - - - Cloudy 10 - - - -
18/09:10am 30.9 E 1 1 1012.1 - - - Cloudy 10 - - - -
18/09:00am 30.5 E 1 2 1012.1 - - - Cloudy 10 - - - -
18/08:50am 30.0 ESE 2 2 1012.1 - - - Cloudy 10 - - - -
18/08:40am 29.6 ESE 2 3 1012.0 - - - Cloudy 10 - - - -
18/08:30am 29.9 ESE 2 2 1011.8 - - - Cloudy 10 - - - -
18/08:20am 29.8 SSE 2 4 1011.6 - - - Partly cloudy 10 - - - -
18/08:10am 29.4 SSE 2 3 1011.5 - - - Partly cloudy 10 - - - -
18/08:00am 29.5 S 5 5 1011.5 - - - Partly cloudy 10 - - - -
18/07:50am 29.5 S 4 6 1011.4 - - - Cloudy 10 - - - -
18/07:40am 29.9 ENE 1 2 1011.3 - - - Cloudy 10 - - - -
18/07:30am 29.4 ESE 2 2 1011.0 - - - Cloudy 10 - - - -
18/07:20am 29.0 SE 4 3 1010.9 - - - Partly cloudy 10 - - - -
18/07:10am 28.7 SE 3 5 1010.8 - - - Cloudy 10 - - - -
18/07:00am 28.6 SE 3 4 1010.6 - - - Cloudy 10 - - - -
18/06:50am 28.4 ESE 2 3 1010.5 - - - Cloudy 10 - - - -
18/06:40am 28.3 SE 3 2 1010.5 - - - Cloudy 10 - - - -

Other Formats:

Comma delimited format used in spreadsheet applications
http://www.bom.gov.au/fwo/IDD60701/IDD60701.95100.axf

JavaScript Object Notation format (JSON) in row-major order
http://www.bom.gov.au/fwo/IDD60701/IDD60701.95100.json